Time,TemperatureF,DewpointF,PressureIn,WindDirection,WindDirectionDegrees,WindSpeedMPH,WindSpeedGustMPH,Humidity,HourlyPrecipIn,Conditions,Clouds,dailyrainin,SoftwareType,DateUTC
2013-03-04 00:01:00,30.0,-99.9,29.73,NNW,336,15.0,23.0,-999,-99.99,,,-99.99,,2013-03-04 05:01:00,
2013-03-04 00:11:00,-999.0,-99.9,-100.00,NNW,345,14.0,21.0,-999,-99.99,,,-99.99,,2013-03-04 05:11:00,
2013-03-04 00:22:00,-999.0,-99.9,-100.00,NNW,341,16.0,23.0,-999,-99.99,,,-99.99,,2013-03-04 05:22:00,
2013-03-04 00:32:00,30.0,-99.9,29.74,NNW,338,14.0,20.0,-999,-99.99,,,-99.99,,2013-03-04 05:32:00,
2013-03-04 00:43:00,-999.0,-99.9,-100.00,NNW,338,18.0,22.0,-999,-99.99,,,-99.99,,2013-03-04 05:43:00,
2013-03-04 00:52:00,-999.0,-99.9,-100.00,NNW,338,13.0,20.0,-999,-99.99,,,-99.99,,2013-03-04 05:52:00,
2013-03-04 01:02:00,-999.0,-99.9,-100.00,NNW,339,13.0,18.0,-999,-99.99,,,-99.99,,2013-03-04 06:02:00,
2013-03-04 01:11:00,-999.0,-99.9,-100.00,NNW,339,16.0,22.0,-999,-99.99,,,-99.99,,2013-03-04 06:11:00,
2013-03-04 01:22:00,-999.0,-99.9,-100.00,North,350,15.0,22.0,-999,-99.99,,,-99.99,,2013-03-04 06:22:00,
2013-03-04 01:32:00,29.0,-99.9,29.75,North,354,17.0,24.0,-999,-99.99,,,-99.99,,2013-03-04 06:32:00,
2013-03-04 01:42:00,-999.0,-99.9,-100.00,NNW,347,14.0,21.0,-999,-99.99,,,-99.99,,2013-03-04 06:42:00,
2013-03-04 01:52:00,-999.0,-99.9,-100.00,NNW,344,14.0,23.0,-999,-99.99,,,-99.99,,2013-03-04 06:52:00,
2013-03-04 02:02:00,29.0,-99.9,29.75,NNW,341,17.0,23.0,-999,-99.99,,,-99.99,,2013-03-04 07:02:00,
2013-03-04 02:11:00,-999.0,-99.9,-100.00,NNW,346,17.0,20.0,-999,-99.99,,,-99.99,,2013-03-04 07:11:00,
2013-03-04 02:22:00,-999.0,-99.9,-100.00,North,356,15.0,19.0,-999,-99.99,,,-99.99,,2013-03-04 07:22:00,
2013-03-04 02:32:00,-999.0,-99.9,-100.00,North,354,15.0,24.0,-999,-99.99,,,-99.99,,2013-03-04 07:32:00,
2013-03-04 02:42:00,-999.0,-99.9,-100.00,North,352,17.0,23.0,-999,-99.99,,,-99.99,,2013-03-04 07:42:00,
2013-03-04 02:52:00,-999.0,-99.9,-100.00,North,-999,18.0,21.0,-999,-99.99,,,-99.99,,2013-03-04 07:52:00,
2013-03-04 03:02:00,28.0,-99.9,29.75,NNW,341,15.0,22.0,-999,-99.99,,,-99.99,,2013-03-04 08:02:00,
2013-03-04 03:12:00,-999.0,-99.9,-100.00,NNW,342,15.0,21.0,-999,-99.99,,,-99.99,,2013-03-04 08:12:00,
2013-03-04 03:22:00,-999.0,-99.9,-100.00,NNW,348,17.0,21.0,-999,-99.99,,,-99.99,,2013-03-04 08:22:00,
2013-03-04 03:32:00,28.0,-99.9,29.75,North,349,18.0,22.0,-999,-99.99,,,-99.99,,2013-03-04 08:32:00,
2013-03-04 03:42:00,-999.0,-99.9,-100.00,NNW,347,14.0,20.0,-999,-99.99,,,-99.99,,2013-03-04 08:42:00,
2013-03-04 03:53:00,-999.0,-99.9,-100.00,NNW,345,12.0,19.0,-999,-99.99,,,-99.99,,2013-03-04 08:53:00,
2013-03-04 04:02:00,28.0,-99.9,29.75,North,360,16.0,20.0,-999,-99.99,,,-99.99,,2013-03-04 09:02:00,
2013-03-04 04:11:00,-999.0,-99.9,-100.00,North,351,15.0,19.0,-999,-99.99,,,-99.99,,2013-03-04 09:11:00,
2013-03-04 04:22:00,-999.0,-99.9,-100.00,NNW,331,14.0,19.0,-999,-99.99,,,-99.99,,2013-03-04 09:22:00,
2013-03-04 04:32:00,28.0,-99.9,29.75,NNW,343,15.0,20.0,-999,-99.99,,,-99.99,,2013-03-04 09:32:00,
2013-03-04 04:42:00,-999.0,-99.9,-100.00,NNW,340,13.0,18.0,-999,-99.99,,,-99.99,,2013-03-04 09:42:00,
2013-03-04 04:52:00,-999.0,-99.9,-100.00,North,350,14.0,20.0,-999,-99.99,,,-99.99,,2013-03-04 09:52:00,
2013-03-04 05:01:00,29.0,-99.9,29.76,NNW,348,13.0,17.0,-999,-99.99,,,-99.99,,2013-03-04 10:01:00,
2013-03-04 05:12:00,-999.0,-99.9,-100.00,NNW,342,15.0,20.0,-999,-99.99,,,-99.99,,2013-03-04 10:12:00,
2013-03-04 05:22:00,-999.0,-99.9,-100.00,North,351,13.0,18.0,-999,-99.99,,,-99.99,,2013-03-04 10:22:00,
2013-03-04 05:32:00,29.0,-99.9,29.76,North,353,14.0,19.0,-999,-99.99,,,-99.99,,2013-03-04 10:32:00,
2013-03-04 05:42:00,-999.0,-99.9,-100.00,NNW,335,15.0,19.0,-999,-99.99,,,-99.99,,2013-03-04 10:42:00,
2013-03-04 05:52:00,-999.0,-99.9,-100.00,NNW,337,14.0,20.0,-999,-99.99,,,-99.99,,2013-03-04 10:52:00,
2013-03-04 06:02:00,-999.0,-99.9,-100.00,NNW,341,12.0,17.0,-999,-99.99,,,-99.99,,2013-03-04 11:02:00,
2013-03-04 06:11:00,-999.0,-99.9,-100.00,NNW,334,14.0,20.0,-999,-99.99,,,-99.99,,2013-03-04 11:11:00,
2013-03-04 06:22:00,-999.0,-99.9,-100.00,NNW,328,15.0,19.0,-999,-99.99,,,-99.99,,2013-03-04 11:22:00,
2013-03-04 06:32:00,29.0,-99.9,29.77,NNW,327,14.0,17.0,-999,-99.99,,,-99.99,,2013-03-04 11:32:00,
2013-03-04 06:42:00,-999.0,-99.9,-100.00,NNW,337,11.0,15.0,-999,-99.99,,,-99.99,,2013-03-04 11:42:00,
2013-03-04 06:52:00,-999.0,-99.9,-100.00,NNW,330,12.0,17.0,-999,-99.99,,,-99.99,,2013-03-04 11:52:00,
2013-03-04 07:02:00,29.0,-99.9,29.77,NNW,346,14.0,18.0,-999,-99.99,,,-99.99,,2013-03-04 12:02:00,
2013-03-04 07:12:00,-999.0,-99.9,-100.00,NNW,341,14.0,22.0,-999,-99.99,,,-99.99,,2013-03-04 12:12:00,
2013-03-04 07:22:00,-999.0,-99.9,-100.00,NNW,339,13.0,20.0,-999,-99.99,,,-99.99,,2013-03-04 12:22:00,
2013-03-04 07:32:00,-999.0,-99.9,-100.00,North,355,16.0,19.0,-999,-99.99,,,-99.99,,2013-03-04 12:32:00,
2013-03-04 07:43:00,-999.0,-99.9,-100.00,NNW,339,14.0,20.0,-999,-99.99,,,-99.99,,2013-03-04 12:43:00,
2013-03-04 07:53:00,-999.0,-99.9,-100.00,NNW,335,15.0,21.0,-999,-99.99,,,-99.99,,2013-03-04 12:53:00,
2013-03-04 08:02:00,30.0,-99.9,29.78,NNW,329,13.0,23.0,-999,-99.99,,,-99.99,,2013-03-04 13:02:00,
2013-03-04 08:12:00,-999.0,-99.9,-100.00,NNW,334,16.0,24.0,-999,-99.99,,,-99.99,,2013-03-04 13:12:00,
2013-03-04 08:22:00,-999.0,-99.9,-100.00,NNW,327,18.0,22.0,-999,-99.99,,,-99.99,,2013-03-04 13:22:00,
2013-03-04 08:32:00,30.0,-99.9,29.79,NNW,333,16.0,24.0,-999,-99.99,,,-99.99,,2013-03-04 13:32:00,
2013-03-04 08:42:00,-999.0,-99.9,-100.00,NNW,348,18.0,27.0,-999,-99.99,,,-99.99,,2013-03-04 13:42:00,
2013-03-04 08:52:00,-999.0,-99.9,-100.00,NNW,346,16.0,23.0,-999,-99.99,,,-99.99,,2013-03-04 13:52:00,
2013-03-04 09:01:00,31.0,-99.9,29.78,NNW,339,14.0,20.0,-999,-99.99,,,-99.99,,2013-03-04 14:01:00,
2013-03-04 09:12:00,-999.0,-99.9,-100.00,North,2,17.0,22.0,-999,-99.99,,,-99.99,,2013-03-04 14:12:00,
2013-03-04 09:22:00,-999.0,-99.9,-100.00,North,359,19.0,23.0,-999,-99.99,,,-99.99,,2013-03-04 14:22:00,
2013-03-04 09:32:00,-999.0,-99.9,-100.00,NNW,347,19.0,25.0,-999,-99.99,,,-99.99,,2013-03-04 14:32:00,
2013-03-04 09:42:00,-999.0,-99.9,-100.00,NNW,345,20.0,29.0,-999,-99.99,,,-99.99,,2013-03-04 14:42:00,
2013-03-04 09:52:00,-999.0,-99.9,-100.00,North,352,19.0,24.0,-999,-99.99,,,-99.99,,2013-03-04 14:52:00,
2013-03-04 10:02:00,32.0,-99.9,29.78,North,354,18.0,29.0,-999,-99.99,,,-99.99,,2013-03-04 15:02:00,
2013-03-04 10:11:00,-999.0,-99.9,-100.00,North,349,19.0,23.0,-999,-99.99,,,-99.99,,2013-03-04 15:11:00,
2013-03-04 10:22:00,33.0,-99.9,-100.00,NNW,340,12.0,21.0,-999,-99.99,,,-99.99,,2013-03-04 15:22:00,
2013-03-04 10:32:00,-999.0,-99.9,29.78,NW,323,17.0,22.0,-999,-99.99,,,-99.99,,2013-03-04 15:32:00,
2013-03-04 10:42:00,32.0,-99.9,-100.00,NNW,337,14.0,21.0,-999,-99.99,,,-99.99,,2013-03-04 15:42:00,
2013-03-04 10:52:00,33.0,-99.9,-100.00,NNW,332,18.0,26.0,-999,-99.99,,,-99.99,,2013-03-04 15:52:00,
2013-03-04 11:03:00,33.0,-99.9,29.78,North,350,19.0,24.0,-999,-99.99,,,-99.99,,2013-03-04 16:03:00,
2013-03-04 11:11:00,33.0,-99.9,-100.00,NNW,340,15.0,21.0,-999,-99.99,,,-99.99,,2013-03-04 16:11:00,
2013-03-04 11:22:00,34.0,-99.9,-100.00,NNW,339,14.0,24.0,-999,-99.99,,,-99.99,,2013-03-04 16:22:00,
2013-03-04 11:32:00,33.0,-99.9,29.78,NW,323,20.0,25.0,-999,-99.99,,,-99.99,,2013-03-04 16:32:00,
2013-03-04 11:42:00,34.0,-99.9,-100.00,NNW,336,15.0,20.0,-999,-99.99,,,-99.99,,2013-03-04 16:42:00,
2013-03-04 11:52:00,35.0,-99.9,-100.00,NNW,336,14.0,21.0,-999,-99.99,,,-99.99,,2013-03-04 16:52:00,
2013-03-04 12:02:00,35.0,-99.9,29.78,NNW,327,12.0,19.0,-999,-99.99,,,-99.99,,2013-03-04 17:02:00,
2013-03-04 12:11:00,35.0,-99.9,-100.00,NW,313,15.0,21.0,-999,-99.99,,,-99.99,,2013-03-04 17:11:00,
2013-03-04 12:22:00,36.0,-99.9,-100.00,North,2,16.0,19.0,-999,-99.99,,,-99.99,,2013-03-04 17:22:00,
2013-03-04 12:32:00,36.0,-99.9,-100.00,NNW,330,20.0,26.0,-999,-99.99,,,-99.99,,2013-03-04 17:32:00,
2013-03-04 12:42:00,36.0,-99.9,-100.00,NNW,338,19.0,26.0,-999,-99.99,,,-99.99,,2013-03-04 17:42:00,
2013-03-04 12:52:00,36.0,-99.9,-100.00,North,357,19.0,23.0,-999,-99.99,,,-99.99,,2013-03-04 17:52:00,
2013-03-04 13:02:00,37.0,-99.9,29.75,NNW,342,17.0,25.0,-999,-99.99,,,-99.99,,2013-03-04 18:02:00,
2013-03-04 13:11:00,37.0,-99.9,-100.00,NNW,335,15.0,23.0,-999,-99.99,,,-99.99,,2013-03-04 18:11:00,
2013-03-04 13:22:00,37.0,-99.9,-100.00,North,354,21.0,25.0,-999,-99.99,,,-99.99,,2013-03-04 18:22:00,
2013-03-04 13:33:00,38.0,-99.9,29.75,NNW,333,13.0,21.0,-999,-99.99,,,-99.99,,2013-03-04 18:33:00,
2013-03-04 13:43:00,37.0,-99.9,-100.00,North,351,19.0,25.0,-999,-99.99,,,-99.99,,2013-03-04 18:43:00,
2013-03-04 13:52:00,38.0,-99.9,-100.00,NNW,347,15.0,21.0,-999,-99.99,,,-99.99,,2013-03-04 18:52:00,
2013-03-04 14:02:00,38.0,-99.9,-100.00,NNW,330,18.0,26.0,-999,-99.99,,,-99.99,,2013-03-04 19:02:00,
2013-03-04 14:12:00,38.0,-99.9,-100.00,North,358,21.0,25.0,-999,-99.99,,,-99.99,,2013-03-04 19:12:00,
2013-03-04 14:22:00,38.0,-99.9,-100.00,North,352,23.0,26.0,-999,-99.99,,,-99.99,,2013-03-04 19:22:00,
2013-03-04 14:32:00,38.0,-99.9,29.74,North,354,18.0,24.0,-999,-99.99,,,-99.99,,2013-03-04 19:32:00,
2013-03-04 14:42:00,38.0,-99.9,-100.00,NNW,330,19.0,26.0,-999,-99.99,,,-99.99,,2013-03-04 19:42:00,
2013-03-04 14:52:00,38.0,-99.9,-100.00,North,353,19.0,23.0,-999,-99.99,,,-99.99,,2013-03-04 19:52:00,
2013-03-04 15:02:00,38.0,-99.9,29.74,NW,318,18.0,27.0,-999,-99.99,,,-99.99,,2013-03-04 20:02:00,
2013-03-04 15:12:00,38.0,-99.9,-100.00,NNW,345,18.0,24.0,-999,-99.99,,,-99.99,,2013-03-04 20:12:00,
2013-03-04 15:22:00,38.0,-99.9,-100.00,North,3,25.0,32.0,-999,-99.99,,,-99.99,,2013-03-04 20:22:00,
2013-03-04 15:33:00,38.0,-99.9,-100.00,North,6,22.0,28.0,-999,-99.99,,,-99.99,,2013-03-04 20:33:00,
2013-03-04 15:42:00,38.0,-99.9,-100.00,NNW,340,17.0,25.0,-999,-99.99,,,-99.99,,2013-03-04 20:42:00,
2013-03-04 15:53:00,38.0,-99.9,-100.00,NNW,337,22.0,27.0,-999,-99.99,,,-99.99,,2013-03-04 20:53:00,
2013-03-04 16:02:00,38.0,-99.9,29.75,NNW,332,23.0,30.0,-999,-99.99,,,-99.99,,2013-03-04 21:02:00,
2013-03-04 16:12:00,38.0,-99.9,-100.00,NNW,328,20.0,26.0,-999,-99.99,,,-99.99,,2013-03-04 21:12:00,
2013-03-04 16:22:00,37.0,-99.9,-100.00,NNW,345,25.0,31.0,-999,-99.99,,,-99.99,,2013-03-04 21:22:00,
2013-03-04 16:32:00,37.0,-99.9,29.76,North,355,25.0,31.0,-999,-99.99,,,-99.99,,2013-03-04 21:32:00,
2013-03-04 16:43:00,37.0,-99.9,-100.00,NNW,341,17.0,27.0,-999,-99.99,,,-99.99,,2013-03-04 21:43:00,
2013-03-04 16:53:00,37.0,-99.9,-100.00,North,353,25.0,32.0,-999,-99.99,,,-99.99,,2013-03-04 21:53:00,
2013-03-04 17:02:00,37.0,-99.9,29.76,North,356,28.0,34.0,-999,-99.99,,,-99.99,,2013-03-04 22:02:00,
2013-03-04 17:12:00,37.0,-99.9,-100.00,NNW,330,25.0,34.0,-999,-99.99,,,-99.99,,2013-03-04 22:12:00,
2013-03-04 17:22:00,37.0,-99.9,-100.00,NNW,334,22.0,31.0,-999,-99.99,,,-99.99,,2013-03-04 22:22:00,
2013-03-04 17:32:00,37.0,-99.9,-100.00,North,354,24.0,28.0,-999,-99.99,,,-99.99,,2013-03-04 22:32:00,
2013-03-04 17:43:00,37.0,-99.9,-100.00,NNW,345,26.0,31.0,-999,-99.99,,,-99.99,,2013-03-04 22:43:00,
2013-03-04 17:52:00,37.0,-99.9,-100.00,North,356,24.0,36.0,-999,-99.99,,,-99.99,,2013-03-04 22:52:00,
2013-03-04 18:02:00,37.0,-99.9,29.79,North,355,26.0,30.0,-999,-99.99,,,-99.99,,2013-03-04 23:02:00,
2013-03-04 18:12:00,36.0,-99.9,-100.00,NNW,346,22.0,27.0,-999,-99.99,,,-99.99,,2013-03-04 23:12:00,
2013-03-04 18:22:00,36.0,-99.9,-100.00,North,354,19.0,26.0,-999,-99.99,,,-99.99,,2013-03-04 23:22:00,
2013-03-04 18:32:00,36.0,-99.9,-100.00,North,353,23.0,34.0,-999,-99.99,,,-99.99,,2013-03-04 23:32:00,
2013-03-04 18:42:00,36.0,-99.9,-100.00,North,355,18.0,26.0,-999,-99.99,,,-99.99,,2013-03-04 23:42:00,
2013-03-04 18:53:00,35.0,-99.9,-100.00,North,-999,17.0,25.0,-999,-99.99,,,-99.99,,2013-03-04 23:53:00,
2013-03-04 19:02:00,35.0,-99.9,29.82,North,356,19.0,25.0,-999,-99.99,,,-99.99,,2013-03-05 00:02:00,
2013-03-04 19:12:00,35.0,-99.9,-100.00,North,356,15.0,21.0,-999,-99.99,,,-99.99,,2013-03-05 00:12:00,
2013-03-04 19:22:00,35.0,-99.9,-100.00,North,358,20.0,28.0,-999,-99.99,,,-99.99,,2013-03-05 00:22:00,
2013-03-04 19:33:00,35.0,-99.9,29.83,North,353,21.0,26.0,-999,-99.99,,,-99.99,,2013-03-05 00:33:00,
2013-03-04 19:42:00,35.0,-99.9,-100.00,North,-999,18.0,29.0,-999,-99.99,,,-99.99,,2013-03-05 00:42:00,
2013-03-04 19:52:00,35.0,-99.9,-100.00,North,353,22.0,26.0,-999,-99.99,,,-99.99,,2013-03-05 00:52:00,
2013-03-04 20:02:00,35.0,-99.9,29.84,North,355,19.0,28.0,-999,-99.99,,,-99.99,,2013-03-05 01:02:00,
2013-03-04 20:12:00,35.0,-99.9,-100.00,North,350,18.0,23.0,-999,-99.99,,,-99.99,,2013-03-05 01:12:00,
2013-03-04 20:22:00,34.0,-99.9,-100.00,North,355,19.0,22.0,-999,-99.99,,,-99.99,,2013-03-05 01:22:00,
2013-03-04 20:33:00,34.0,-99.9,-100.00,North,354,22.0,30.0,-999,-99.99,,,-99.99,,2013-03-05 01:33:00,
2013-03-04 20:42:00,34.0,-99.9,-100.00,North,353,19.0,28.0,-999,-99.99,,,-99.99,,2013-03-05 01:42:00,
2013-03-04 20:52:00,34.0,-99.9,-100.00,NNW,343,17.0,25.0,-999,-99.99,,,-99.99,,2013-03-05 01:52:00,
2013-03-04 21:02:00,34.0,-99.9,29.85,NNW,345,20.0,28.0,-999,-99.99,,,-99.99,,2013-03-05 02:02:00,
2013-03-04 21:12:00,34.0,-99.9,-100.00,North,356,23.0,28.0,-999,-99.99,,,-99.99,,2013-03-05 02:12:00,
2013-03-04 21:22:00,34.0,-99.9,-100.00,NNW,345,19.0,26.0,-999,-99.99,,,-99.99,,2013-03-05 02:22:00,
2013-03-04 21:33:00,34.0,-99.9,29.85,North,7,18.0,26.0,-999,-99.99,,,-99.99,,2013-03-05 02:33:00,
2013-03-04 21:42:00,34.0,-99.9,-100.00,North,352,21.0,30.0,-999,-99.99,,,-99.99,,2013-03-05 02:42:00,
2013-03-04 21:53:00,33.0,-99.9,-100.00,North,1,21.0,27.0,-999,-99.99,,,-99.99,,2013-03-05 02:53:00,
2013-03-04 22:02:00,33.0,-99.9,29.86,North,358,21.0,27.0,-999,-99.99,,,-99.99,,2013-03-05 03:02:00,
2013-03-04 22:12:00,33.0,-99.9,-100.00,North,-999,18.0,26.0,-999,-99.99,,,-99.99,,2013-03-05 03:12:00,
2013-03-04 22:22:00,33.0,-99.9,-100.00,North,3,24.0,34.0,-999,-99.99,,,-99.99,,2013-03-05 03:22:00,
2013-03-04 22:32:00,33.0,-99.9,29.87,North,360,20.0,28.0,-999,-99.99,,,-99.99,,2013-03-05 03:32:00,
2013-03-04 22:42:00,33.0,-99.9,-100.00,North,354,22.0,28.0,-999,-99.99,,,-99.99,,2013-03-05 03:42:00,
2013-03-04 22:52:00,33.0,-99.9,-100.00,North,356,17.0,27.0,-999,-99.99,,,-99.99,,2013-03-05 03:52:00,
2013-03-04 23:02:00,33.0,-99.9,29.88,North,357,18.0,23.0,-999,-99.99,,,-99.99,,2013-03-05 04:02:00,
2013-03-04 23:12:00,33.0,-99.9,-100.00,North,354,17.0,25.0,-999,-99.99,,,-99.99,,2013-03-05 04:12:00,
2013-03-04 23:22:00,33.0,-99.9,-100.00,North,354,18.0,24.0,-999,-99.99,,,-99.99,,2013-03-05 04:22:00,
2013-03-04 23:32:00,33.0,-99.9,29.88,North,358,21.0,30.0,-999,-99.99,,,-99.99,,2013-03-05 04:32:00,
2013-03-04 23:42:00,33.0,-99.9,-100.00,North,-999,17.0,26.0,-999,-99.99,,,-99.99,,2013-03-05 04:42:00,
2013-03-04 23:52:00,33.0,-99.9,-100.00,North,350,18.0,23.0,-999,-99.99,,,-99.99,,2013-03-05 04:52:00,